contact:dominique.lefevre@mio.osupytheas.fr, maurice.libes@osupytheas.fr, didier.mallarino@osupytheas.fr
Project:EMSO http://www.emso-fr.org/EMSO-France
Depth: 2436.0 m
Title:EMSO Ligure Ouest : Data MII capteur MICROCAT
DateTime_Computer,Latitude,Longitude,Temperature,Conductivity,Pressure,DateTime_Instrument
DateTime_Computer,Latitude,Longitude,degC,S m-1,dbar,DateTime_Instrument
2023-10-14T00:02:07Z,42.805,6.029,13.3028,4.60094,2470.67,2023-10-14T02:04:32Z
2023-10-14T00:05:10Z,42.805,6.029,13.3026,4.60094,2470.717,2023-10-14T02:07:35Z
2023-10-14T00:08:13Z,42.805,6.029,13.3028,4.60094,2470.693,2023-10-14T02:10:38Z
2023-10-14T00:11:16Z,42.805,6.029,13.3026,4.60094,2470.707,2023-10-14T02:13:41Z
2023-10-14T00:14:20Z,42.805,6.029,13.3027,4.60095,2470.754,2023-10-14T02:16:44Z
2023-10-14T00:17:23Z,42.805,6.029,13.3024,4.60094,2470.717,2023-10-14T02:19:47Z
2023-10-14T00:20:26Z,42.805,6.029,13.3030,4.60094,2470.67,2023-10-14T02:22:50Z
2023-10-14T00:23:29Z,42.805,6.029,13.3028,4.60096,2470.67,2023-10-14T02:25:53Z
2023-10-14T00:26:32Z,42.805,6.029,13.3028,4.60097,2470.693,2023-10-14T02:28:56Z
2023-10-14T00:29:35Z,42.805,6.029,13.3028,4.60094,2470.684,2023-10-14T02:31:59Z
2023-10-14T00:32:38Z,42.805,6.029,13.3027,4.60095,2470.693,2023-10-14T02:35:02Z
2023-10-14T00:35:41Z,42.805,6.029,13.3022,4.60094,2470.693,2023-10-14T02:38:06Z
2023-10-14T00:38:44Z,42.805,6.029,13.3028,4.60095,2470.693,2023-10-14T02:41:09Z
2023-10-14T00:41:47Z,42.805,6.029,13.3028,4.60094,2470.73,2023-10-14T02:44:12Z
2023-10-14T00:44:50Z,42.805,6.029,13.3029,4.60094,2470.646,2023-10-14T02:47:15Z
2023-10-14T00:47:53Z,42.805,6.029,13.3029,4.60095,2470.707,2023-10-14T02:50:18Z
2023-10-14T00:50:57Z,42.805,6.029,13.3027,4.60094,2470.693,2023-10-14T02:53:21Z
2023-10-14T00:54:00Z,42.805,6.029,13.3025,4.60095,2470.693,2023-10-14T02:56:24Z
2023-10-14T00:57:03Z,42.805,6.029,13.3031,4.60094,2470.67,2023-10-14T02:59:27Z
2023-10-14T01:00:06Z,42.805,6.029,13.3028,4.60094,2470.684,2023-10-14T03:02:30Z
2023-10-14T01:03:09Z,42.805,6.029,13.3027,4.60097,2470.693,2023-10-14T03:05:33Z
2023-10-14T01:06:12Z,42.805,6.029,13.3029,4.60095,2470.693,2023-10-14T03:08:36Z
2023-10-14T01:09:15Z,42.805,6.029,13.3027,4.60095,2470.693,2023-10-14T03:11:39Z
2023-10-14T01:12:18Z,42.805,6.029,13.3028,4.60096,2470.67,2023-10-14T03:14:43Z
2023-10-14T01:15:21Z,42.805,6.029,13.3029,4.60095,2470.707,2023-10-14T03:17:46Z
2023-10-14T01:18:24Z,42.805,6.029,13.3026,4.60096,2470.67,2023-10-14T03:20:49Z
2023-10-14T01:21:27Z,42.805,6.029,13.3024,4.60094,2470.73,2023-10-14T03:23:52Z
2023-10-14T01:24:30Z,42.805,6.029,13.3030,4.60094,2470.693,2023-10-14T03:26:55Z
2023-10-14T01:27:34Z,42.805,6.029,13.3028,4.60094,2470.693,2023-10-14T03:29:58Z
2023-10-14T01:30:37Z,42.805,6.029,13.3024,4.60096,2470.693,2023-10-14T03:33:01Z
2023-10-14T01:33:40Z,42.805,6.029,13.3026,4.60095,2470.693,2023-10-14T03:36:04Z
2023-10-14T01:36:43Z,42.805,6.029,13.3029,4.60094,2470.693,2023-10-14T03:39:07Z
2023-10-14T01:39:46Z,42.805,6.029,13.3022,4.60094,2470.67,2023-10-14T03:42:10Z
2023-10-14T01:42:49Z,42.805,6.029,13.3029,4.60094,2470.67,2023-10-14T03:45:13Z
2023-10-14T01:45:52Z,42.805,6.029,13.3027,4.60094,2470.67,2023-10-14T03:48:16Z
2023-10-14T01:48:55Z,42.805,6.029,13.3026,4.60094,2470.67,2023-10-14T03:51:19Z
2023-10-14T01:51:58Z,42.805,6.029,13.3028,4.60095,2470.661,2023-10-14T03:54:23Z
2023-10-14T01:55:01Z,42.805,6.029,13.3026,4.60095,2470.693,2023-10-14T03:57:26Z
2023-10-14T01:58:04Z,42.805,6.029,13.3027,4.60095,2470.67,2023-10-14T04:00:29Z
2023-10-14T02:01:07Z,42.805,6.029,13.3028,4.60095,2470.693,2023-10-14T04:03:32Z
2023-10-14T02:04:11Z,42.805,6.029,13.3029,4.60095,2470.73,2023-10-14T04:06:35Z
2023-10-14T02:07:14Z,42.805,6.029,13.3027,4.60094,2470.67,2023-10-14T04:09:38Z
2023-10-14T02:10:17Z,42.805,6.029,13.3029,4.60095,2470.67,2023-10-14T04:12:41Z
2023-10-14T02:13:20Z,42.805,6.029,13.3030,4.60095,2470.693,2023-10-14T04:15:44Z
2023-10-14T02:16:23Z,42.805,6.029,13.3026,4.60095,2470.707,2023-10-14T04:18:47Z
2023-10-14T02:19:26Z,42.805,6.029,13.3026,4.60094,2470.693,2023-10-14T04:21:50Z
2023-10-14T02:22:29Z,42.805,6.029,13.3027,4.60093,2470.707,2023-10-14T04:24:53Z
2023-10-14T02:25:32Z,42.805,6.029,13.3030,4.60094,2470.67,2023-10-14T04:27:57Z
2023-10-14T02:28:35Z,42.805,6.029,13.3028,4.60094,2470.67,2023-10-14T04:31:00Z
2023-10-14T02:31:38Z,42.805,6.029,13.3029,4.60094,2470.693,2023-10-14T04:34:03Z
2023-10-14T02:34:41Z,42.805,6.029,13.3025,4.60094,2470.67,2023-10-14T04:37:06Z
2023-10-14T02:40:47Z,42.805,6.029,13.3025,4.60094,2470.707,2023-10-14T04:43:12Z
2023-10-14T02:43:50Z,42.805,6.029,13.3029,4.60097,2470.693,2023-10-14T04:46:15Z
2023-10-14T02:46:54Z,42.805,6.029,13.3029,4.60096,2470.693,2023-10-14T04:49:18Z
2023-10-14T02:49:57Z,42.805,6.029,13.3029,4.60094,2470.693,2023-10-14T04:52:21Z
2023-10-14T02:53:00Z,42.805,6.029,13.3029,4.60094,2470.73,2023-10-14T04:55:24Z
2023-10-14T02:56:03Z,42.805,6.029,13.3031,4.60094,2470.693,2023-10-14T04:58:27Z
2023-10-14T02:59:06Z,42.805,6.029,13.3027,4.60094,2470.693,2023-10-14T05:01:30Z
2023-10-14T03:02:09Z,42.805,6.029,13.3026,4.60096,2470.73,2023-10-14T05:04:33Z
2023-10-14T03:05:12Z,42.805,6.029,13.3027,4.60096,2470.74,2023-10-14T05:07:36Z
2023-10-14T03:08:15Z,42.805,6.029,13.3029,4.60095,2470.73,2023-10-14T05:10:40Z
2023-10-14T03:11:18Z,42.805,6.029,13.3026,4.60096,2470.74,2023-10-14T05:13:43Z
2023-10-14T03:14:21Z,42.805,6.029,13.3026,4.60094,2470.754,2023-10-14T05:16:46Z
2023-10-14T03:17:24Z,42.805,6.029,13.3029,4.60094,2470.717,2023-10-14T05:19:49Z
2023-10-14T03:20:27Z,42.805,6.029,13.3026,4.60095,2470.74,2023-10-14T05:22:52Z
2023-10-14T03:23:30Z,42.805,6.029,13.3029,4.60097,2470.74,2023-10-14T05:25:55Z
2023-10-14T03:26:34Z,42.805,6.029,13.3026,4.60094,2470.717,2023-10-14T05:28:58Z
2023-10-14T03:29:37Z,42.805,6.029,13.3029,4.60094,2470.717,2023-10-14T05:32:01Z
2023-10-14T03:32:40Z,42.805,6.029,13.3029,4.60095,2470.754,2023-10-14T05:35:04Z
2023-10-14T03:35:43Z,42.805,6.029,13.3028,4.60095,2470.74,2023-10-14T05:38:07Z
2023-10-14T03:38:46Z,42.805,6.029,13.3028,4.60095,2470.754,2023-10-14T05:41:10Z
2023-10-14T03:41:49Z,42.805,6.029,13.3027,4.60096,2470.754,2023-10-14T05:44:13Z
2023-10-14T03:44:52Z,42.805,6.029,13.3028,4.60096,2470.754,2023-10-14T05:47:16Z
2023-10-14T03:47:55Z,42.805,6.029,13.3029,4.60096,2470.777,2023-10-14T05:50:20Z
2023-10-14T03:50:58Z,42.805,6.029,13.3027,4.60097,2470.74,2023-10-14T05:53:23Z
2023-10-14T03:54:01Z,42.805,6.029,13.3031,4.60094,2470.726,2023-10-14T05:56:26Z
2023-10-14T03:57:04Z,42.805,6.029,13.3026,4.60096,2470.787,2023-10-14T05:59:29Z
2023-10-14T04:00:07Z,42.805,6.029,13.3027,4.60096,2470.763,2023-10-14T06:02:32Z
2023-10-14T04:03:11Z,42.805,6.029,13.3031,4.60096,2470.763,2023-10-14T06:05:35Z
2023-10-14T04:06:14Z,42.805,6.029,13.3025,4.60096,2470.763,2023-10-14T06:08:38Z
2023-10-14T04:09:17Z,42.805,6.029,13.3026,4.60095,2470.787,2023-10-14T06:11:41Z
2023-10-14T04:12:20Z,42.805,6.029,13.3029,4.60096,2470.763,2023-10-14T06:14:44Z
2023-10-14T04:15:23Z,42.805,6.029,13.3029,4.60095,2470.763,2023-10-14T06:17:47Z
2023-10-14T04:18:26Z,42.805,6.029,13.3026,4.60097,2470.824,2023-10-14T06:20:50Z
2023-10-14T04:21:29Z,42.805,6.029,13.3027,4.60095,2470.754,2023-10-14T06:23:53Z
2023-10-14T04:24:32Z,42.805,6.029,13.3027,4.60094,2470.763,2023-10-14T06:26:57Z
2023-10-14T04:27:35Z,42.805,6.029,13.3027,4.60095,2470.777,2023-10-14T06:30:00Z
2023-10-14T04:30:38Z,42.805,6.029,13.3026,4.60095,2470.763,2023-10-14T06:33:03Z
2023-10-14T04:33:41Z,42.805,6.029,13.3026,4.60095,2470.787,2023-10-14T06:36:06Z
2023-10-14T04:36:44Z,42.805,6.029,13.3029,4.60095,2470.787,2023-10-14T06:39:09Z
2023-10-14T04:39:47Z,42.805,6.029,13.3028,4.60097,2470.8,2023-10-14T06:42:12Z
2023-10-14T04:42:51Z,42.805,6.029,13.3027,4.60097,2470.787,2023-10-14T06:45:15Z
2023-10-14T04:45:54Z,42.805,6.029,13.3031,4.60096,2470.787,2023-10-14T06:48:18Z
2023-10-14T04:48:57Z,42.805,6.029,13.3029,4.60095,2470.787,2023-10-14T06:51:21Z
2023-10-14T04:52:00Z,42.805,6.029,13.3030,4.60097,2470.787,2023-10-14T06:54:24Z
2023-10-14T04:55:03Z,42.805,6.029,13.3030,4.60096,2470.787,2023-10-14T06:57:27Z
2023-10-14T04:58:06Z,42.805,6.029,13.3029,4.60095,2470.833,2023-10-14T07:00:30Z
2023-10-14T05:01:09Z,42.805,6.029,13.3026,4.60097,2470.787,2023-10-14T07:03:34Z
2023-10-14T05:04:12Z,42.805,6.029,13.3027,4.60095,2470.81,2023-10-14T07:06:37Z
2023-10-14T05:07:15Z,42.805,6.029,13.3024,4.60095,2470.824,2023-10-14T07:09:40Z
2023-10-14T05:10:18Z,42.805,6.029,13.3028,4.60096,2470.824,2023-10-14T07:12:43Z
2023-10-14T05:13:21Z,42.805,6.029,13.3029,4.60094,2470.824,2023-10-14T07:15:46Z
2023-10-14T05:16:24Z,42.805,6.029,13.3028,4.60095,2470.8,2023-10-14T07:18:49Z
2023-10-14T05:19:28Z,42.805,6.029,13.3033,4.60096,2470.81,2023-10-14T07:21:52Z
2023-10-14T05:22:31Z,42.805,6.029,13.3026,4.60095,2470.833,2023-10-14T07:24:55Z
2023-10-14T05:25:34Z,42.805,6.029,13.3031,4.60096,2470.787,2023-10-14T07:27:58Z
2023-10-14T05:28:37Z,42.805,6.029,13.3029,4.60094,2470.847,2023-10-14T07:31:01Z
2023-10-14T05:31:40Z,42.805,6.029,13.3027,4.60097,2470.796,2023-10-14T07:34:04Z
2023-10-14T05:34:43Z,42.805,6.029,13.3027,4.60095,2470.81,2023-10-14T07:37:07Z
2023-10-14T05:37:46Z,42.805,6.029,13.3029,4.60096,2470.871,2023-10-14T07:40:10Z
2023-10-14T05:40:49Z,42.805,6.029,13.3026,4.60096,2470.787,2023-10-14T07:43:14Z
2023-10-14T05:43:52Z,42.805,6.029,13.3028,4.60096,2470.824,2023-10-14T07:46:17Z
2023-10-14T05:46:55Z,42.805,6.029,13.3029,4.60094,2470.88,2023-10-14T07:49:20Z
2023-10-14T05:49:58Z,42.805,6.029,13.3031,4.60097,2470.81,2023-10-14T07:52:23Z
2023-10-14T05:53:01Z,42.805,6.029,13.3031,4.60097,2470.871,2023-10-14T07:55:26Z
2023-10-14T05:56:05Z,42.805,6.029,13.3028,4.60097,2470.81,2023-10-14T07:58:29Z
2023-10-14T05:59:08Z,42.805,6.029,13.3029,4.60098,2470.847,2023-10-14T08:01:32Z
2023-10-14T06:02:11Z,42.805,6.029,13.3028,4.60097,2470.871,2023-10-14T08:04:35Z
2023-10-14T06:05:14Z,42.805,6.029,13.3031,4.60096,2470.833,2023-10-14T08:07:38Z
2023-10-14T06:08:17Z,42.805,6.029,13.3025,4.60095,2470.824,2023-10-14T08:10:41Z
2023-10-14T06:11:20Z,42.805,6.029,13.3029,4.60097,2470.833,2023-10-14T08:13:44Z
2023-10-14T06:14:23Z,42.805,6.029,13.3024,4.60097,2470.847,2023-10-14T08:16:47Z
2023-10-14T06:17:26Z,42.805,6.029,13.3029,4.60097,2470.88,2023-10-14T08:19:50Z
2023-10-14T06:20:29Z,42.805,6.029,13.3026,4.60099,2470.88,2023-10-14T08:22:54Z
2023-10-14T06:23:32Z,42.805,6.029,13.3028,4.60096,2470.88,2023-10-14T08:25:57Z
2023-10-14T06:26:35Z,42.805,6.029,13.3029,4.60097,2470.904,2023-10-14T08:29:00Z
2023-10-14T06:29:38Z,42.805,6.029,13.3029,4.60097,2470.81,2023-10-14T08:32:03Z
2023-10-14T06:32:41Z,42.805,6.029,13.3029,4.60097,2470.871,2023-10-14T08:35:06Z
2023-10-14T06:35:44Z,42.805,6.029,13.3030,4.60098,2470.871,2023-10-14T08:38:09Z
2023-10-14T06:38:48Z,42.805,6.029,13.3029,4.60097,2470.894,2023-10-14T08:41:12Z
2023-10-14T06:41:51Z,42.805,6.029,13.3026,4.60099,2470.871,2023-10-14T08:44:15Z
2023-10-14T06:44:54Z,42.805,6.029,13.3031,4.60099,2470.857,2023-10-14T08:47:18Z
2023-10-14T06:47:57Z,42.805,6.029,13.3029,4.60097,2470.871,2023-10-14T08:50:21Z
2023-10-14T06:51:00Z,42.805,6.029,13.3026,4.60099,2470.88,2023-10-14T08:53:24Z
2023-10-14T06:54:03Z,42.805,6.029,13.3029,4.60098,2470.871,2023-10-14T08:56:27Z
2023-10-14T06:57:06Z,42.805,6.029,13.3031,4.60098,2470.857,2023-10-14T08:59:31Z
2023-10-14T07:00:09Z,42.805,6.029,13.3029,4.60097,2470.857,2023-10-14T09:02:34Z
2023-10-14T07:03:12Z,42.805,6.029,13.3029,4.60097,2470.88,2023-10-14T09:05:37Z
2023-10-14T07:06:15Z,42.805,6.029,13.3029,4.60097,2470.871,2023-10-14T09:08:40Z
2023-10-14T07:09:18Z,42.805,6.029,13.3029,4.60097,2470.88,2023-10-14T09:11:43Z
2023-10-14T07:12:21Z,42.805,6.029,13.3032,4.60098,2470.88,2023-10-14T09:14:46Z
2023-10-14T07:15:25Z,42.805,6.029,13.3030,4.60099,2470.857,2023-10-14T09:17:49Z
2023-10-14T07:18:28Z,42.805,6.029,13.3029,4.60097,2470.857,2023-10-14T09:20:52Z
2023-10-14T07:21:31Z,42.805,6.029,13.3027,4.60098,2470.857,2023-10-14T09:23:55Z
2023-10-14T07:24:34Z,42.805,6.029,13.3026,4.60099,2470.857,2023-10-14T09:26:58Z
2023-10-14T07:27:37Z,42.805,6.029,13.3028,4.60099,2470.871,2023-10-14T09:30:01Z
2023-10-14T07:30:40Z,42.805,6.029,13.3028,4.60097,2470.88,2023-10-14T09:33:04Z
2023-10-14T07:33:43Z,42.805,6.029,13.3029,4.60097,2470.833,2023-10-14T09:36:08Z
2023-10-14T07:36:46Z,42.805,6.029,13.3031,4.60097,2470.857,2023-10-14T09:39:11Z
2023-10-14T07:39:49Z,42.805,6.029,13.3027,4.60097,2470.857,2023-10-14T09:42:14Z
2023-10-14T07:42:52Z,42.805,6.029,13.3031,4.60098,2470.894,2023-10-14T09:45:17Z
2023-10-14T07:45:55Z,42.805,6.029,13.3031,4.60097,2470.857,2023-10-14T09:48:20Z
2023-10-14T07:48:58Z,42.805,6.029,13.3028,4.60096,2470.857,2023-10-14T09:51:23Z
2023-10-14T07:52:02Z,42.805,6.029,13.3027,4.60097,2470.857,2023-10-14T09:54:26Z
2023-10-14T07:55:05Z,42.805,6.029,13.3025,4.60098,2470.857,2023-10-14T09:57:29Z
2023-10-14T07:58:08Z,42.805,6.029,13.3031,4.60099,2470.857,2023-10-14T10:00:32Z
2023-10-14T08:01:11Z,42.805,6.029,13.3031,4.60098,2470.857,2023-10-14T10:03:35Z
2023-10-14T08:04:14Z,42.805,6.029,13.3027,4.60096,2470.847,2023-10-14T10:06:38Z
2023-10-14T08:07:17Z,42.805,6.029,13.3026,4.60097,2470.81,2023-10-14T10:09:41Z
2023-10-14T08:10:20Z,42.805,6.029,13.3027,4.60097,2470.847,2023-10-14T10:12:44Z
2023-10-14T08:13:23Z,42.805,6.029,13.3026,4.60099,2470.833,2023-10-14T10:15:48Z
2023-10-14T08:16:26Z,42.805,6.029,13.3033,4.60097,2470.847,2023-10-14T10:18:51Z
2023-10-14T08:19:29Z,42.805,6.029,13.3029,4.60097,2470.82,2023-10-14T10:21:54Z
2023-10-14T08:22:32Z,42.805,6.029,13.3028,4.60097,2470.81,2023-10-14T10:24:57Z
2023-10-14T08:25:35Z,42.805,6.029,13.3028,4.60096,2470.833,2023-10-14T10:28:00Z
2023-10-14T08:28:39Z,42.805,6.029,13.3031,4.60097,2470.857,2023-10-14T10:31:03Z
2023-10-14T08:31:42Z,42.805,6.029,13.3026,4.60098,2470.81,2023-10-14T10:34:06Z
2023-10-14T08:34:45Z,42.805,6.029,13.3028,4.60097,2470.847,2023-10-14T10:37:09Z
2023-10-14T08:37:48Z,42.805,6.029,13.3026,4.60096,2470.81,2023-10-14T10:40:12Z
2023-10-14T08:40:51Z,42.805,6.029,13.3026,4.60097,2470.833,2023-10-14T10:43:15Z
2023-10-14T08:43:54Z,42.805,6.029,13.3028,4.60097,2470.824,2023-10-14T10:46:18Z
2023-10-14T08:46:57Z,42.805,6.029,13.3026,4.60097,2470.81,2023-10-14T10:49:21Z
2023-10-14T08:50:00Z,42.805,6.029,13.3028,4.60098,2470.796,2023-10-14T10:52:25Z
2023-10-14T08:53:03Z,42.805,6.029,13.3028,4.60097,2470.824,2023-10-14T10:55:28Z
2023-10-14T08:56:06Z,42.805,6.029,13.3026,4.60098,2470.824,2023-10-14T10:58:31Z
2023-10-14T08:59:09Z,42.805,6.029,13.3029,4.60102,2470.81,2023-10-14T11:01:34Z
2023-10-14T09:02:12Z,42.805,6.029,13.3026,4.60097,2470.787,2023-10-14T11:04:37Z
2023-10-14T09:05:16Z,42.805,6.029,13.3026,4.60097,2470.81,2023-10-14T11:07:40Z
2023-10-14T09:08:19Z,42.805,6.029,13.3029,4.60102,2470.824,2023-10-14T11:10:43Z
2023-10-14T09:11:22Z,42.805,6.029,13.3029,4.60098,2470.81,2023-10-14T11:13:46Z
2023-10-14T09:14:25Z,42.805,6.029,13.3027,4.60097,2470.824,2023-10-14T11:16:49Z
2023-10-14T09:17:28Z,42.805,6.029,13.3026,4.60099,2470.833,2023-10-14T11:19:52Z
2023-10-14T09:20:31Z,42.805,6.029,13.3028,4.60098,2470.787,2023-10-14T11:22:55Z
2023-10-14T09:23:34Z,42.805,6.029,13.3029,4.60096,2470.847,2023-10-14T11:25:59Z
2023-10-14T09:26:37Z,42.805,6.029,13.3028,4.60099,2470.824,2023-10-14T11:29:02Z
2023-10-14T09:29:40Z,42.805,6.029,13.3029,4.60099,2470.787,2023-10-14T11:32:05Z
2023-10-14T09:32:43Z,42.805,6.029,13.3030,4.60098,2470.81,2023-10-14T11:35:08Z
2023-10-14T09:35:46Z,42.805,6.029,13.3029,4.60096,2470.81,2023-10-14T11:38:11Z
2023-10-14T09:38:50Z,42.805,6.029,13.3026,4.60097,2470.787,2023-10-14T11:41:14Z
2023-10-14T09:41:53Z,42.805,6.029,13.3027,4.60098,2470.787,2023-10-14T11:44:17Z
2023-10-14T09:44:56Z,42.805,6.029,13.3031,4.60097,2470.787,2023-10-14T11:47:20Z
2023-10-14T09:47:59Z,42.805,6.029,13.3026,4.60097,2470.787,2023-10-14T11:50:23Z
2023-10-14T09:51:02Z,42.805,6.029,13.3027,4.60095,2470.787,2023-10-14T11:53:26Z
2023-10-14T09:54:05Z,42.805,6.029,13.3029,4.60097,2470.824,2023-10-14T11:56:29Z
2023-10-14T09:57:08Z,42.805,6.029,13.3028,4.60097,2470.763,2023-10-14T11:59:32Z
2023-10-14T10:00:11Z,42.805,6.029,13.3030,4.60097,2470.787,2023-10-14T12:02:36Z
2023-10-14T10:03:14Z,42.805,6.029,13.3030,4.60097,2470.777,2023-10-14T12:05:39Z
2023-10-14T10:06:17Z,42.805,6.029,13.3028,4.60098,2470.8,2023-10-14T12:08:42Z
2023-10-14T10:09:20Z,42.805,6.029,13.3029,4.60098,2470.777,2023-10-14T12:11:45Z
2023-10-14T10:12:23Z,42.805,6.029,13.3029,4.60097,2470.763,2023-10-14T12:14:48Z
2023-10-14T10:15:27Z,42.805,6.029,13.3029,4.60097,2470.8,2023-10-14T12:17:51Z
2023-10-14T10:18:30Z,42.805,6.029,13.3031,4.60098,2470.824,2023-10-14T12:20:54Z
2023-10-14T10:21:33Z,42.805,6.029,13.3027,4.60098,2470.777,2023-10-14T12:23:57Z
2023-10-14T10:24:36Z,42.805,6.029,13.3031,4.60098,2470.763,2023-10-14T12:27:00Z
2023-10-14T10:27:39Z,42.805,6.029,13.3030,4.60096,2470.81,2023-10-14T12:30:03Z
2023-10-14T10:30:43Z,42.805,6.029,13.3030,4.60096,2470.777,2023-10-14T12:33:07Z
2023-10-14T10:33:46Z,42.805,6.029,13.3025,4.60098,2470.763,2023-10-14T12:36:11Z
2023-10-14T10:36:49Z,42.805,6.029,13.3028,4.60098,2470.74,2023-10-14T12:39:14Z
2023-10-14T10:39:52Z,42.805,6.029,13.3032,4.60096,2470.763,2023-10-14T12:42:17Z
2023-10-14T10:42:55Z,42.805,6.029,13.3029,4.60097,2470.74,2023-10-14T12:45:20Z
2023-10-14T10:45:58Z,42.805,6.029,13.3028,4.60097,2470.717,2023-10-14T12:48:23Z
2023-10-14T10:49:02Z,42.805,6.029,13.3028,4.60097,2470.777,2023-10-14T12:51:26Z
2023-10-14T10:52:05Z,42.805,6.029,13.3029,4.60097,2470.8,2023-10-14T12:54:29Z
2023-10-14T10:55:08Z,42.805,6.029,13.3027,4.60096,2470.777,2023-10-14T12:57:32Z
2023-10-14T10:58:11Z,42.805,6.029,13.3027,4.60097,2470.74,2023-10-14T13:00:35Z
2023-10-14T11:01:14Z,42.805,6.029,13.3029,4.60095,2470.73,2023-10-14T13:03:38Z
2023-10-14T11:04:17Z,42.805,6.029,13.3026,4.60096,2470.74,2023-10-14T13:06:41Z
2023-10-14T11:07:20Z,42.805,6.029,13.3025,4.60095,2470.74,2023-10-14T13:09:45Z
2023-10-14T11:10:23Z,42.805,6.029,13.3029,4.60093,2470.754,2023-10-14T13:12:48Z
2023-10-14T11:13:26Z,42.805,6.029,13.3026,4.60095,2470.74,2023-10-14T13:15:51Z
2023-10-14T11:16:29Z,42.805,6.029,13.3029,4.60094,2470.717,2023-10-14T13:18:54Z
2023-10-14T11:19:32Z,42.805,6.029,13.3029,4.60095,2470.717,2023-10-14T13:21:57Z
2023-10-14T11:22:36Z,42.805,6.029,13.3023,4.60093,2470.754,2023-10-14T13:25:00Z
2023-10-14T11:25:39Z,42.805,6.029,13.3026,4.60094,2470.717,2023-10-14T13:28:03Z
2023-10-14T11:28:42Z,42.805,6.029,13.3030,4.60094,2470.73,2023-10-14T13:31:06Z
2023-10-14T11:31:45Z,42.805,6.029,13.3026,4.60094,2470.74,2023-10-14T13:34:09Z
2023-10-14T11:34:48Z,42.805,6.029,13.3031,4.60094,2470.73,2023-10-14T13:37:12Z
2023-10-14T11:37:51Z,42.805,6.029,13.3028,4.60093,2470.717,2023-10-14T13:40:15Z
2023-10-14T11:40:54Z,42.805,6.029,13.3026,4.60093,2470.717,2023-10-14T13:43:18Z
2023-10-14T11:43:57Z,42.805,6.029,13.3021,4.60094,2470.717,2023-10-14T13:46:22Z
2023-10-14T11:47:00Z,42.805,6.029,13.3028,4.60095,2470.754,2023-10-14T13:49:25Z
2023-10-14T11:50:03Z,42.805,6.029,13.3026,4.60094,2470.693,2023-10-14T13:52:28Z
2023-10-14T11:53:06Z,42.805,6.029,13.3025,4.60098,2470.693,2023-10-14T13:55:31Z
2023-10-14T11:56:09Z,42.805,6.029,13.3032,4.60094,2470.717,2023-10-14T13:58:34Z
2023-10-14T11:59:13Z,42.805,6.029,13.3025,4.60094,2470.693,2023-10-14T14:01:37Z
2023-10-14T12:02:16Z,42.805,6.029,13.3024,4.60094,2470.717,2023-10-14T14:04:40Z
2023-10-14T12:05:19Z,42.805,6.029,13.3025,4.60094,2470.684,2023-10-14T14:07:43Z
2023-10-14T12:08:22Z,42.805,6.029,13.3029,4.60096,2470.693,2023-10-14T14:10:46Z
2023-10-14T12:11:25Z,42.805,6.029,13.3025,4.60095,2470.67,2023-10-14T14:13:49Z
2023-10-14T12:14:28Z,42.805,6.029,13.3022,4.60095,2470.707,2023-10-14T14:16:52Z
2023-10-14T12:17:31Z,42.805,6.029,13.3029,4.60096,2470.707,2023-10-14T14:19:56Z
2023-10-14T12:20:34Z,42.805,6.029,13.3029,4.60096,2470.684,2023-10-14T14:22:59Z
2023-10-14T12:23:37Z,42.805,6.029,13.3026,4.60094,2470.707,2023-10-14T14:26:02Z
2023-10-14T12:26:40Z,42.805,6.029,13.3027,4.60095,2470.67,2023-10-14T14:29:05Z
2023-10-14T12:29:43Z,42.805,6.029,13.3026,4.60094,2470.707,2023-10-14T14:32:08Z
2023-10-14T12:32:47Z,42.805,6.029,13.3024,4.60094,2470.693,2023-10-14T14:35:11Z
2023-10-14T12:35:50Z,42.805,6.029,13.3028,4.60094,2470.707,2023-10-14T14:38:14Z
2023-10-14T12:38:53Z,42.805,6.029,13.3024,4.60092,2470.67,2023-10-14T14:41:17Z
2023-10-14T12:41:56Z,42.805,6.029,13.3026,4.60094,2470.67,2023-10-14T14:44:20Z
2023-10-14T12:44:59Z,42.805,6.029,13.3028,4.60094,2470.67,2023-10-14T14:47:23Z
2023-10-14T12:48:02Z,42.805,6.029,13.3030,4.60095,2470.67,2023-10-14T14:50:26Z
2023-10-14T12:51:05Z,42.805,6.029,13.3029,4.60095,2470.684,2023-10-14T14:53:30Z
2023-10-14T12:54:08Z,42.805,6.029,13.3026,4.60094,2470.646,2023-10-14T14:56:33Z
2023-10-14T12:57:11Z,42.805,6.029,13.3026,4.60096,2470.693,2023-10-14T14:59:36Z
2023-10-14T13:00:14Z,42.805,6.029,13.3026,4.60094,2470.67,2023-10-14T15:02:39Z
2023-10-14T13:03:17Z,42.805,6.029,13.3029,4.60094,2470.717,2023-10-14T15:05:42Z
2023-10-14T13:06:21Z,42.805,6.029,13.3027,4.60095,2470.656,2023-10-14T15:08:45Z
2023-10-14T13:09:24Z,42.805,6.029,13.3025,4.60096,2470.684,2023-10-14T15:11:48Z
2023-10-14T13:12:27Z,42.805,6.029,13.3025,4.60094,2470.67,2023-10-14T15:14:51Z
2023-10-14T13:15:30Z,42.805,6.029,13.3029,4.60094,2470.67,2023-10-14T15:17:54Z
2023-10-14T13:18:33Z,42.805,6.029,13.3025,4.60094,2470.661,2023-10-14T15:20:57Z
2023-10-14T13:21:36Z,42.805,6.029,13.3031,4.60096,2470.67,2023-10-14T15:24:00Z
2023-10-14T13:24:39Z,42.805,6.029,13.3027,4.60094,2470.73,2023-10-14T15:27:04Z
2023-10-14T13:27:42Z,42.805,6.029,13.3026,4.60093,2470.67,2023-10-14T15:30:07Z
2023-10-14T13:30:45Z,42.805,6.029,13.3029,4.60093,2470.661,2023-10-14T15:33:10Z
2023-10-14T13:33:48Z,42.805,6.029,13.3029,4.60093,2470.707,2023-10-14T15:36:13Z
2023-10-14T13:36:51Z,42.805,6.029,13.3029,4.60094,2470.67,2023-10-14T15:39:16Z
2023-10-14T13:39:54Z,42.805,6.029,13.3024,4.60095,2470.693,2023-10-14T15:42:19Z
2023-10-14T13:42:58Z,42.805,6.029,13.3029,4.60093,2470.707,2023-10-14T15:45:22Z
2023-10-14T13:46:01Z,42.805,6.029,13.3025,4.60095,2470.67,2023-10-14T15:48:25Z
2023-10-14T13:49:04Z,42.805,6.029,13.3024,4.60094,2470.67,2023-10-14T15:51:28Z
2023-10-14T13:52:07Z,42.805,6.029,13.3026,4.60093,2470.693,2023-10-14T15:54:31Z
2023-10-14T13:55:10Z,42.805,6.029,13.3026,4.60094,2470.693,2023-10-14T15:57:34Z
2023-10-14T13:58:13Z,42.805,6.029,13.3026,4.60093,2470.67,2023-10-14T16:00:37Z
2023-10-14T14:01:16Z,42.805,6.029,13.3026,4.60095,2470.707,2023-10-14T16:03:41Z
2023-10-14T14:04:19Z,42.805,6.029,13.3029,4.60094,2470.693,2023-10-14T16:06:44Z
2023-10-14T14:07:22Z,42.805,6.029,13.3028,4.60094,2470.707,2023-10-14T16:09:47Z
2023-10-14T14:10:25Z,42.805,6.029,13.3026,4.60094,2470.679,2023-10-14T16:12:50Z
2023-10-14T14:13:28Z,42.805,6.029,13.3024,4.60094,2470.684,2023-10-14T16:15:53Z
2023-10-14T14:16:32Z,42.805,6.029,13.3024,4.60095,2470.67,2023-10-14T16:18:56Z
2023-10-14T14:19:35Z,42.805,6.029,13.3026,4.60094,2470.684,2023-10-14T16:21:59Z
2023-10-14T14:22:38Z,42.805,6.029,13.3026,4.60094,2470.707,2023-10-14T16:25:02Z
2023-10-14T14:25:41Z,42.805,6.029,13.3027,4.60095,2470.67,2023-10-14T16:28:05Z
2023-10-14T14:28:44Z,42.805,6.029,13.3026,4.60098,2470.693,2023-10-14T16:31:08Z
2023-10-14T14:31:45Z,42.805,6.029,13.3029,4.60096,2470.67,2023-10-14T16:34:10Z
2023-10-14T14:34:48Z,42.805,6.029,13.3028,4.60094,2470.73,2023-10-14T16:37:13Z
2023-10-14T14:37:51Z,42.805,6.029,13.3023,4.60095,2470.693,2023-10-14T16:40:16Z
2023-10-14T14:40:55Z,42.805,6.029,13.3026,4.60094,2470.717,2023-10-14T16:43:19Z
2023-10-14T14:43:58Z,42.805,6.029,13.3027,4.60094,2470.67,2023-10-14T16:46:22Z
2023-10-14T14:47:01Z,42.805,6.029,13.3025,4.60093,2470.67,2023-10-14T16:49:25Z
2023-10-14T14:50:04Z,42.805,6.029,13.3024,4.60094,2470.693,2023-10-14T16:52:28Z
2023-10-14T14:53:07Z,42.805,6.029,13.3027,4.60093,2470.693,2023-10-14T16:55:31Z
2023-10-14T14:56:10Z,42.805,6.029,13.3027,4.60094,2470.717,2023-10-14T16:58:34Z
2023-10-14T14:59:13Z,42.805,6.029,13.3025,4.60094,2470.717,2023-10-14T17:01:38Z
2023-10-14T15:02:16Z,42.805,6.029,13.3024,4.60094,2470.67,2023-10-14T17:04:41Z
2023-10-14T15:05:19Z,42.805,6.029,13.3026,4.60098,2470.693,2023-10-14T17:07:44Z